IRIDIUM 123

Last updated on Tue Sep 22 2026 00:03:20 GMT+0000 (Coordinated Universal Time)

1 42804U 17039B 26264.42285866 .00000012 00000+0 -27430-5 0 9993 2 42804 86.3974 313.4318 0002183 90.1206 270.0240 14.34217383483749
UTC large
Height (km)
Speed (km/s)
/
Latitude / Longitude
Inclination (degrees)
Orbital Period (minutes)
Azimuth
Elevation
Range (km)
Doppler Factor

Next 0 passes for location: London (51.5072 / 0.1276)

No passes found over London.
IRIDIUM 123